GFSNE_850_rhum_003.txt.gz
RH
29 32 32 30 29 31 35 36 56 64 59 56 69 71 84 86 83 78 76 77 77 76 69 70 76 92 96 93 79 81 80 83 87 91 83 80 83 81
36 34 32 28 28 30 36 45 62 82 86 63 68 86 86 84 82 76 74 79 78 79 81 83 88 84 79 80 80 82 86 93 97 96 97 96 95 95
35 31 25 22 20 24 38 56 72 86 92 73 86 80 86 82 79 86 90 88 88 86 82 82 86 87 92 93 91 93 92 92 95 97 98 99 98 98
30 23 15 13 16 27 40 51 69 79 87 88 83 84 80 90 95 99 93 86 80 83 86 87 86 87 88 93 96 95 98 99 95 93 98 95 95 94
21 14 13 21 31 39 46 64 85 92 95 97 86 76 96 100 100 90 81 72 78 86 89 91 94 94 94 94 95 94 94 95 94 92 97 96 98 96
14 18 27 41 48 59 88 96 95 90 91 94 99 97 97 88 83 77 80 84 90 92 92 96 94 93 94 94 97 97 97 96 94 94 93 95 96 90
17 29 45 55 67 91 93 94 94 95 96 98 97 94 90 82 83 89 97 97 96 95 90 92 88 92 88 96 98 100 100 100 100 98 98 97 96 94
31 40 59 74 86 91 93 99 100 98 94 96 100 89 80 89 93 100 100 100 99 91 94 94 86 93 89 90 99 100 100 100 99 98 98 98 96 95
42 64 84 91 77 84 82 95 98 93 84 86 87 90 97 98 99 95 99 99 100 91 99 100 83 97 90 84 95 100 100 100 99 99 100 100 98 96
69 78 91 82 91 96 99 99 84 78 83 82 100 99 100 98 100 100 98 95 95 83 100 98 83 97 90 82 80 99 100 100 100 99 99 98 98 98
72 87 89 99 100 94 96 94 94 86 73 91 98 91 74 76 85 100 99 100 99 91 88 99 97 100 94 75 76 94 100 99 100 100 100 100 99 98
100 100 90 98 96 98 96 95 98 76 98 98 77 70 68 67 73 91 98 99 100 98 85 98 98 100 96 82 82 77 92 94 100 100 100 100 100 99
98 99 96 96 99 95 95 95 91 98 100 80 74 72 75 79 81 86 92 98 97 98 81 99 96 95 100 97 75 72 95 94 98 94 94 97 97 98
99 96 91 99 97 95 80 92 100 100 82 86 97 99 89 79 83 84 87 88 92 96 93 98 97 98 98 100 100 75 88 82 96 95 96 96 98 98
93 94 98 92 62 58 73 82 81 83 99 100 100 90 88 88 85 86 85 86 85 86 95 98 99 98 100 97 97 86 96 89 90 98 96 96 99 97
97 96 76 60 55 69 76 79 85 92 100 100 100 90 90 90 88 92 94 92 91 78 79 94 97 99 96 88 95 89 89 100 95 96 97 97 97 98
99 77 60 56 60 78 78 83 89 92 94 94 94 92 92 93 88 91 96 95 97 92 83 79 88 91 76 72 77 80 93 100 100 96 97 98 96 97
86 65 62 63 78 87 90 89 88 91 94 96 95 97 97 95 94 93 95 96 95 89 90 94 92 86 74 64 74 88 93 100 95 96 97 98 94 100
65 65 68 71 85 90 93 94 93 94 97 96 96 93 95 96 97 95 94 94 92 92 97 94 96 100 100 100 70 74 98 96 97 97 99 98 98 99
67 70 69 77 90 93 95 97 94 94 96 94 95 96 97 98 96 95 95 97 95 97 92 89 98 100 100 100 100 67 94 98 98 99 99 97 99 99
71 69 70 88 93 97 98 96 97 97 97 97 96 97 97 97 94 96 96 98 99 96 97 94 98 96 93 87 91 80 84 98 98 98 99 100 96 93
73 70 77 93 95 97 96 97 94 95 95 96 96 97 97 97 96 96 97 97 96 96 97 92 94 90 88 90 86 88 94 86 91 97 97 100 99 98
74 71 91 94 95 96 97 96 95 94 96 96 97 97 97 96 97 97 97 98 97 98 94 92 87 89 89 85 81 82 88 85 93 93 96 96 97 98

GFSNE_850_rhum_006.txt.gz
RH
33 36 36 35 33 38 51 60 59 50 44 42 45 49 58 67 68 73 72 70 76 80 83 84 87 86 83 82 85 88 90 86 87 89 88 85 88 88
35 35 34 32 31 35 55 64 65 63 60 51 53 58 65 68 69 72 72 82 82 83 83 84 85 88 87 84 85 85 87 87 87 83 92 93 94 94
33 33 29 23 26 50 59 62 66 67 67 60 63 67 72 72 71 78 81 87 81 74 76 78 82 87 91 91 92 90 92 89 92 93 93 96 98 99
32 29 23 27 27 50 62 65 67 71 72 76 75 75 73 78 87 86 82 71 67 64 73 85 90 91 91 92 94 94 95 96 98 96 98 96 96 96
31 24 21 25 45 59 64 72 78 77 78 82 78 75 85 93 88 78 71 67 70 76 78 84 88 93 95 94 92 91 93 94 96 95 98 96 94 95
25 28 34 42 69 75 81 80 76 81 79 82 88 96 95 82 74 67 68 76 81 84 83 91 89 90 90 87 92 96 96 95 97 97 97 96 96 96
38 55 63 71 57 95 94 91 88 89 89 92 98 93 84 72 66 74 86 89 86 90 84 84 78 83 87 90 92 94 94 96 98 99 99 100 99 99
61 60 73 88 89 94 92 93 95 95 97 100 95 86 71 70 80 91 100 99 94 85 87 85 89 89 89 88 90 95 97 99 100 99 99 98 100 98
60 78 83 82 92 90 95 96 96 96 97 92 84 76 83 87 90 94 94 97 96 88 97 89 88 88 87 82 92 99 100 100 100 100 100 99 99 98
83 86 85 87 89 95 96 96 98 84 79 83 87 90 94 93 98 98 98 96 95 95 93 94 86 91 87 75 69 66 96 100 100 100 100 100 99 99
82 82 89 95 94 94 98 90 84 78 82 93 100 100 99 100 100 100 95 98 98 94 96 95 89 95 86 69 73 75 89 96 97 98 99 98 99 100
78 82 86 94 91 98 96 88 86 88 95 95 93 93 94 96 100 100 96 97 100 99 89 97 97 100 96 84 76 60 68 72 87 97 97 97 98 98
84 84 91 89 96 95 95 93 94 98 100 98 95 94 94 94 99 97 97 99 99 98 78 100 99 100 100 97 79 67 77 79 82 83 91 90 99 98
91 92 89 95 96 96 93 95 100 100 100 98 100 99 99 93 85 85 82 84 91 96 88 94 98 100 100 99 100 72 70 72 84 92 94 93 94 98
96 93 95 97 89 62 82 82 85 100 100 100 100 100 100 86 86 89 84 87 85 80 81 84 99 98 100 100 100 99 98 79 84 98 97 97 97 96
94 95 94 90 90 87 91 98 100 100 100 100 100 100 100 97 91 93 97 92 95 76 76 81 93 100 98 100 100 97 70 100 97 96 98 100 97 98
97 92 85 82 89 94 97 100 100 100 100 100 100 100 98 99 88 90 95 97 99 95 84 79 86 100 99 98 97 75 91 94 94 97 96 98 98 98
97 88 87 94 98 100 100 99 98 100 100 98 95 98 97 95 94 91 95 98 100 96 100 95 99 100 95 85 89 92 90 96 96 95 98 98 98 95
92 93 100 100 100 100 100 98 92 92 95 98 98 96 96 96 96 94 94 96 94 96 100 100 100 100 98 98 72 69 97 93 98 99 99 98 98 96
84 100 100 100 98 93 92 95 92 92 96 97 96 97 97 97 95 95 95 98 98 100 100 96 100 99 98 100 100 67 91 97 98 97 97 89 99 97
92 97 95 86 89 94 96 94 95 95 97 96 95 96 96 96 94 96 96 96 100 100 100 100 88 92 95 96 100 92 77 86 98 98 97 100 100 87
85 87 71 89 94 96 96 97 95 96 98 97 96 96 97 97 96 95 96 97 96 100 100 100 86 99 100 100 100 100 82 85 87 97 97 98 99 98
75 68 78 92 96 97 98 98 96 96 97 96 96 96 96 96 96 96 96 97 97 100 100 100 100 100 99 100 100 100 87 91 88 95 95 97 98 98

GFSNE_850_rhum_009.txt.gz
RH
31 34 34 35 37 39 43 51 60 61 56 47 41 45 46 53 58 66 69 69 73 79 80 83 83 86 83 82 82 87 90 87 95 91 88 92 92 84
34 30 29 33 36 38 46 55 57 60 63 58 57 57 57 63 68 69 71 80 81 78 80 82 83 80 81 84 86 89 95 95 97 96 96 96 97 94
29 28 29 33 34 39 43 51 57 61 64 65 68 70 71 72 69 77 82 68 73 74 73 73 77 83 86 92 90 93 93 93 94 97 98 97 97 95
24 33 38 48 40 41 51 57 59 62 71 74 75 77 77 72 85 91 88 74 75 65 72 79 83 84 86 87 92 94 90 94 94 98 96 98 99 98
34 46 44 47 47 54 62 68 73 77 77 78 81 77 82 90 92 82 73 69 66 72 77 82 86 88 92 89 88 88 89 90 92 93 96 98 97 96
49 56 53 55 57 70 71 87 86 85 88 86 78 80 98 94 78 72 70 75 82 85 77 87 88 89 87 85 91 94 94 94 96 94 96 96 98 98
49 52 58 64 69 88 94 92 92 87 84 81 98 98 91 80 76 75 84 90 80 98 68 90 82 76 73 88 91 94 95 96 98 99 99 99 99 99
48 50 61 70 78 84 89 90 90 93 96 99 95 92 92 77 83 93 92 98 99 80 91 85 86 87 83 85 89 93 96 99 100 100 100 100 100 98
49 68 78 76 82 87 88 88 88 99 99 90 93 85 85 81 85 93 96 99 96 76 87 94 88 89 79 79 91 95 93 76 100 99 98 98 99 99
70 76 78 79 84 90 85 96 88 81 82 81 87 89 89 94 98 98 95 89 85 84 100 100 83 83 89 77 60 61 68 98 97 100 98 100 98 96
71 73 76 82 87 89 96 90 91 86 81 87 94 99 97 95 97 94 86 99 93 96 90 99 92 89 82 65 64 72 79 65 68 73 93 100 100 96
76 77 78 84 90 91 96 95 91 86 87 89 90 89 90 89 94 94 97 97 98 99 83 97 96 99 96 85 77 64 58 61 66 66 94 97 97 97
88 85 84 90 92 91 93 93 92 98 95 95 93 92 91 93 95 91 90 100 96 97 77 100 97 96 100 98 77 67 69 66 67 62 67 79 97 98
93 87 88 94 93 93 95 96 100 100 95 95 93 94 98 95 86 86 86 89 99 100 88 95 98 100 98 98 96 74 68 68 73 69 81 93 95 97
89 93 95 93 93 89 88 99 100 95 96 94 95 96 97 92 88 88 90 96 89 83 82 87 100 100 98 99 99 90 98 73 61 79 95 97 98 96
94 89 91 90 80 84 86 91 94 97 96 96 95 96 96 91 89 93 95 91 100 78 75 86 98 100 98 97 100 100 95 100 95 97 98 96 91 95
98 80 78 78 82 87 92 94 96 100 100 100 100 96 93 95 88 89 93 99 100 99 90 80 86 99 99 98 98 87 99 100 91 96 100 95 85 92
85 82 82 87 93 95 98 90 91 94 100 99 96 97 98 96 94 91 95 98 100 99 100 92 100 98 87 95 96 96 92 90 95 94 100 99 95 76
81 88 89 96 98 100 100 98 94 95 95 97 97 95 96 96 97 95 98 97 95 92 88 99 100 97 99 98 76 98 98 90 93 99 100 100 100 82
78 92 91 94 92 99 96 99 96 93 93 95 96 97 96 98 98 97 98 98 95 93 96 95 100 98 98 98 97 78 68 99 98 96 98 98 96 99
88 89 88 85 91 96 99 99 96 94 95 97 95 96 96 97 95 96 96 96 99 97 97 96 97 100 99 98 98 100 79 76 97 98 97 97 99 100
82 78 74 79 94 99 99 98 96 94 96 97 96 96 96 97 96 96 96 97 96 97 96 96 95 97 100 100 95 95 91 88 87 94 97 98 99 99
72 68 67 88 98 98 98 98 96 95 97 97 96 95 96 96 96 97 97 98 97 97 96 94 95 100 100 98 100 96 95 94 95 92 92 97 97 98

GFSNE_850_rhum_012.txt.gz
RH
39 34 30 27 29 34 40 44 51 62 60 48 51 42 34 33 42 50 60 69 74 86 86 83 83 86 82 82 82 80 83 87 91 98 98 96 97 95
36 31 26 23 28 35 36 36 39 51 60 52 53 55 66 72 70 74 72 76 80 88 83 84 83 81 82 84 86 93 96 95 98 98 97 98 99 98
32 24 20 29 36 36 33 30 39 51 60 57 66 77 79 79 69 68 80 86 74 77 80 82 79 85 87 90 91 89 95 96 98 97 98 98 98 98
22 20 29 39 38 34 35 47 57 62 73 81 84 82 83 67 71 87 85 72 72 72 77 80 86 89 90 92 91 95 96 95 95 98 97 98 97 97
20 34 41 41 34 38 47 55 62 65 86 88 85 76 71 77 95 77 72 78 74 74 81 84 91 92 95 92 90 90 93 94 93 94 97 96 95 99
32 37 38 44 55 62 65 70 85 94 96 88 85 82 88 96 78 84 81 79 76 72 71 59 82 60 93 84 91 97 98 98 96 95 98 96 98 99
24 20 36 55 59 71 89 89 93 95 89 95 89 96 95 86 91 87 82 77 78 80 87 56 72 62 60 61 65 72 100 97 99 99 100 100 99 98
13 24 38 44 53 82 87 90 89 94 90 95 99 88 96 87 88 84 80 96 99 85 92 64 74 63 65 71 69 96 100 100 100 100 100 100 100 100
22 46 56 66 74 78 82 89 83 85 94 96 92 90 88 91 90 91 99 99 94 76 87 72 75 81 73 72 67 80 95 99 96 99 100 100 100 100
32 54 72 74 77 86 88 90 96 90 82 93 95 93 95 94 98 98 100 98 82 74 95 98 78 80 77 73 65 61 61 71 98 97 92 100 100 99
48 71 74 81 83 87 93 93 91 90 83 76 94 100 100 100 100 97 92 98 96 84 86 100 84 86 80 70 68 72 76 87 64 65 79 99 100 100
40 57 71 91 91 90 89 97 98 86 84 92 82 72 70 76 82 92 99 99 96 92 86 96 94 100 98 90 78 67 64 63 66 67 68 69 69 94
93 90 90 89 92 92 93 94 93 94 93 89 78 77 76 77 82 86 88 99 97 94 77 99 96 98 100 97 82 70 74 68 72 66 64 63 75 87
93 93 86 95 95 94 94 93 96 96 91 86 88 81 83 84 85 86 84 87 89 97 83 95 96 99 97 97 98 80 76 73 81 77 71 71 76 80
92 95 97 96 94 91 78 94 98 87 90 94 88 83 88 88 88 86 80 86 88 82 80 83 100 96 97 99 100 91 94 78 77 84 86 84 88 92
87 93 86 71 84 81 71 75 82 85 96 97 93 90 91 91 88 90 95 93 96 80 74 80 89 100 99 97 100 96 78 99 90 90 91 88 82 88
99 84 62 67 64 63 70 77 80 86 90 92 95 94 93 96 89 90 94 97 100 93 85 76 82 90 88 94 96 83 87 99 98 91 98 100 81 99
94 74 65 67 69 71 79 83 85 90 94 94 94 95 97 96 96 91 94 94 97 92 91 84 90 90 85 95 96 95 91 91 91 98 99 100 100 90
65 62 66 72 71 75 87 92 92 93 96 95 96 96 97 95 96 93 95 98 95 92 87 90 96 99 99 98 91 100 96 93 98 93 93 100 100 96
64 68 70 72 72 83 93 96 95 95 95 95 97 97 96 97 95 96 97 99 96 93 97 88 93 97 98 98 98 74 83 97 98 98 95 92 88 88
68 66 66 68 74 91 96 96 97 96 98 98 94 95 96 97 94 97 97 96 99 98 100 94 95 100 100 94 99 90 75 84 96 98 97 98 96 100
70 66 64 68 89 96 96 96 96 95 96 95 95 96 96 97 96 96 97 98 97 100 98 98 97 100 98 100 98 93 93 82 80 83 97 98 99 99
68 66 67 83 95 95 97 98 97 93 95 96 96 96 96 96 97 97 97 98 100 98 98 98 100 100 100 98 98 96 95 89 88 85 87 95 99 98

GFSNE_850_rhum_015.txt.gz
RH
57 43 33 29 24 24 29 37 45 54 47 34 37 32 31 35 47 65 72 51 82 88 92 93 90 88 87 85 84 84 91 97 94 97 98 97 96 95
53 37 31 24 20 27 34 36 36 38 51 37 40 43 45 51 58 59 54 58 64 86 92 88 90 89 87 86 90 92 94 95 97 97 99 98 99 98
42 32 23 19 28 36 36 34 31 34 48 47 50 54 66 54 52 61 62 70 64 59 89 90 89 90 90 92 90 92 97 94 98 99 98 98 97 98
33 21 21 34 38 37 34 32 37 43 55 63 70 73 65 63 72 78 71 61 66 60 84 89 93 94 96 97 98 93 93 96 99 99 98 94 93 97
19 23 34 38 33 31 37 39 47 61 71 85 90 82 73 78 85 76 70 67 71 66 72 62 78 92 96 96 97 96 97 100 98 100 100 98 99 99
27 31 29 27 33 43 48 58 80 88 94 94 93 83 87 91 81 81 75 82 69 74 74 63 87 56 58 62 71 66 71 100 100 100 99 98 98 98
24 17 15 28 44 47 68 88 90 89 92 96 87 90 99 87 82 87 86 79 82 79 94 77 70 57 57 60 62 60 69 100 100 100 100 99 98 100
14 14 20 32 36 54 82 87 90 91 94 94 95 97 86 83 90 92 88 96 100 93 85 75 62 60 63 67 66 80 84 100 100 100 100 100 100 100
15 17 24 43 69 70 76 86 91 96 99 98 90 85 95 88 90 96 98 99 95 83 85 88 59 67 71 72 65 61 62 79 98 100 100 100 100 100
13 17 47 67 70 78 88 97 98 93 87 81 87 90 94 94 98 100 97 98 87 76 77 100 81 75 71 71 62 58 61 67 99 100 100 99 99 100
11 33 52 54 63 94 92 91 89 90 86 79 78 98 100 90 92 100 90 97 89 84 72 93 83 85 80 69 62 65 70 75 69 68 92 98 100 100
52 53 59 88 95 95 96 99 98 90 84 92 90 74 69 70 78 87 94 100 97 100 73 99 92 94 99 86 83 72 64 64 65 70 72 81 89 100
60 60 74 84 98 97 95 95 97 93 97 90 77 70 69 73 80 83 86 93 96 99 75 100 96 93 100 97 87 74 73 68 72 69 69 74 77 84
52 71 82 96 97 96 96 94 95 99 83 74 74 74 77 80 81 81 82 85 86 89 82 88 96 98 97 96 95 83 79 73 74 72 72 70 71 74
66 93 100 100 80 60 71 94 74 75 77 80 82 82 84 84 82 82 79 82 84 77 77 84 97 96 99 98 100 90 92 76 71 73 81 84 79 74
87 100 94 67 58 59 57 63 75 80 87 92 90 85 85 85 83 86 90 93 94 77 72 81 88 97 95 95 100 96 79 97 77 79 88 92 91 90
100 80 61 52 52 57 62 75 80 83 87 91 91 89 87 89 85 87 90 96 100 93 83 74 81 92 91 92 93 82 78 81 78 85 99 100 88 80
80 69 61 62 62 64 75 82 82 84 90 91 91 91 93 92 91 89 95 96 96 92 90 85 91 90 83 90 94 89 81 87 86 93 95 100 97 79
61 62 65 64 64 69 82 87 84 86 91 93 93 93 93 93 97 93 94 96 94 92 86 92 96 98 98 100 87 98 96 91 98 96 96 100 100 92
65 65 63 63 64 76 88 88 88 89 91 93 94 96 97 98 96 96 97 99 95 92 96 90 95 97 98 98 100 75 86 96 96 97 95 93 92 87
66 62 61 63 72 88 92 91 92 92 95 98 93 96 97 97 96 98 97 96 98 97 95 93 93 96 98 97 100 91 77 85 96 98 96 97 94 92
67 63 62 70 87 92 92 94 91 91 93 94 96 98 98 98 98 98 98 98 98 99 97 97 99 96 97 99 98 96 88 77 76 75 92 98 98 98
70 65 70 87 93 93 96 95 92 91 94 97 98 100 100 100 100 100 100 100 98 97 100 100 100 92 92 99 99 96 92 88 91 84 70 85 91 97

GFSNE_850_rhum_018.txt.gz
RH
57 58 50 35 28 22 22 26 36 46 42 31 25 25 27 27 28 36 32 32 37 53 89 96 94 93 93 90 90 95 90 94 94 98 98 98 97 98
58 58 44 32 22 21 26 34 38 40 47 34 31 33 33 34 38 41 42 49 55 46 72 94 96 95 92 92 94 91 94 95 97 99 99 98 97 97
60 52 36 23 20 29 35 35 32 34 39 41 42 44 48 41 39 42 48 51 43 49 54 92 97 97 95 94 94 96 97 98 98 98 98 99 98 98
56 39 24 20 30 34 33 28 30 36 44 55 65 60 60 56 64 64 48 41 51 51 53 95 93 97 98 100 100 100 97 99 98 98 99 99 96 98
40 24 21 30 32 29 27 32 38 44 55 78 85 84 76 68 68 58 55 52 55 55 56 58 53 58 92 100 98 97 97 98 99 100 100 100 100 99
33 26 28 24 20 24 33 40 49 68 80 82 88 85 81 76 79 76 57 55 61 60 57 66 52 70 56 53 53 57 58 63 98 100 100 100 99 100
27 24 17 16 22 34 44 58 77 76 81 91 97 90 87 84 76 68 70 75 80 65 70 68 61 61 48 51 57 58 54 82 100 100 100 100 100 99
20 14 16 19 27 35 51 68 86 92 96 97 95 92 88 79 70 84 90 96 100 74 71 66 66 65 58 61 61 58 70 96 100 100 100 100 100 100
15 16 15 17 29 45 53 58 88 91 96 94 96 88 87 70 90 95 97 99 92 74 81 78 73 70 64 66 62 60 58 61 77 99 100 100 100 99
15 10 13 22 31 41 61 88 93 96 97 92 86 88 90 95 98 100 96 91 91 84 80 89 75 72 72 66 59 58 57 61 76 100 100 100 100 100
11 21 35 35 42 71 92 95 96 93 90 84 79 83 89 90 82 90 82 97 90 87 77 88 74 78 76 70 63 62 65 69 73 68 88 100 100 100
22 26 27 42 88 96 97 100 99 90 85 87 67 66 65 67 75 83 89 96 96 97 84 98 94 94 99 91 83 74 69 67 67 69 76 91 99 100
21 20 31 58 100 99 98 100 96 95 98 80 66 63 67 71 74 78 83 90 92 96 77 100 96 93 100 96 89 75 73 70 72 70 68 69 74 93
26 40 71 97 100 99 90 82 97 98 63 66 70 73 77 74 76 78 81 84 88 90 83 96 96 97 98 94 92 78 79 77 76 72 70 67 68 74
62 92 99 95 76 52 50 52 54 61 72 77 79 79 82 80 80 81 79 81 82 78 79 94 96 96 99 98 100 90 85 75 75 71 72 75 80 83
91 98 96 81 63 52 52 55 68 77 83 86 87 86 84 82 82 86 87 88 88 73 76 82 93 97 95 95 99 92 80 98 74 72 78 83 82 83
99 88 61 52 49 49 52 67 76 80 82 87 90 90 89 90 88 89 90 90 95 89 79 73 81 90 88 90 93 81 77 78 76 81 91 91 82 82
87 63 57 57 56 57 63 75 80 82 85 89 92 92 94 95 93 88 93 94 94 92 88 83 86 87 80 85 95 89 81 86 83 93 100 100 97 86
60 63 63 61 59 61 74 84 83 84 89 92 91 91 95 96 97 91 92 96 95 93 88 88 95 98 98 100 79 96 97 94 98 97 100 100 100 79
62 63 62 62 63 71 84 87 85 88 90 90 91 97 98 97 94 96 96 98 97 94 96 86 89 97 98 98 98 76 81 96 98 98 98 96 95 88
61 59 63 65 73 87 91 90 92 92 93 96 96 96 96 97 95 97 97 98 100 99 96 89 85 91 99 95 100 93 77 83 96 96 94 98 93 88
61 64 68 82 93 95 92 91 91 90 91 92 96 98 100 99 96 96 96 99 96 94 94 91 96 100 96 97 97 95 89 83 80 88 95 98 98 98
72 80 93 94 95 94 93 92 93 92 94 96 98 100 100 100 100 100 98 95 95 96 98 97 99 99 99 98 99 98 95 91 91 91 75 93 98 100

GFSNE_850_rhum_021.txt.gz
RH
52 55 57 56 49 35 25 18 20 32 36 28 25 21 24 22 22 25 25 24 24 28 28 29 62 95 97 96 95 92 96 98 90 98 98 97 99 98
70 71 58 56 44 29 20 21 28 34 42 34 27 23 24 23 26 33 32 33 37 33 29 41 90 99 99 97 97 96 98 93 97 99 97 99 99 98
60 57 58 52 34 22 22 30 33 33 35 32 33 33 38 32 30 30 32 32 28 28 37 46 88 98 99 100 100 100 100 98 99 99 99 99 99 100
64 58 53 38 24 25 32 32 27 26 34 37 45 50 51 41 51 52 43 31 33 38 42 47 86 85 100 100 100 100 100 100 96 94 98 95 99 99
58 56 36 29 28 33 31 22 22 29 36 50 66 71 67 59 60 52 43 35 43 48 50 52 54 59 95 94 98 96 95 95 96 97 98 99 100 100
58 44 33 30 30 24 18 21 28 36 47 64 73 82 87 69 73 63 54 48 64 57 53 57 56 56 50 50 52 50 52 54 60 94 100 100 100 100
42 33 33 23 16 16 21 29 46 62 66 80 95 97 84 83 78 73 73 82 82 59 51 55 55 51 49 54 54 53 54 53 67 100 100 100 100 100
69 33 18 17 18 22 29 56 90 85 91 99 96 98 92 86 81 78 94 98 100 75 58 56 62 57 58 60 56 57 58 62 97 100 100 100 100 98
21 17 18 18 17 22 38 49 52 61 94 98 99 93 95 79 86 98 98 96 93 73 70 67 71 63 62 63 58 57 55 55 69 99 100 100 100 99
19 17 14 18 25 36 50 73 91 86 86 87 88 85 84 95 95 97 98 87 77 74 78 80 67 70 72 66 59 55 57 61 64 75 100 100 100 99
17 23 32 33 33 53 91 99 97 88 85 83 80 77 85 87 82 80 74 82 78 80 81 90 76 84 78 71 66 65 67 67 67 70 88 100 100 100
35 35 37 34 49 97 100 100 98 86 80 74 70 71 67 65 71 78 82 88 94 98 90 99 89 94 97 82 79 79 71 66 65 68 71 78 98 100
38 31 33 46 92 100 99 99 93 94 100 90 69 59 66 69 72 73 79 87 93 97 77 100 93 90 100 98 86 76 73 69 72 67 68 72 79 97
37 40 54 84 100 100 87 56 96 99 71 59 69 72 73 71 72 74 78 82 87 90 80 88 96 99 98 93 90 77 82 82 77 75 76 70 71 77
47 67 85 86 82 60 52 49 52 56 66 76 80 77 80 81 81 79 77 80 79 76 78 81 90 94 99 98 99 91 86 76 78 76 77 78 79 78
74 94 95 83 56 51 49 49 56 72 81 86 85 84 85 85 84 90 86 83 81 69 75 82 85 95 95 96 100 91 81 98 75 71 76 82 85 86
100 80 64 49 47 47 48 54 70 80 85 88 88 89 88 90 89 87 88 88 92 85 74 73 82 88 89 91 93 81 80 80 72 79 89 92 81 81
54 50 50 53 53 53 55 66 79 86 90 92 92 93 94 95 91 88 94 94 92 88 85 80 83 86 80 81 94 92 86 85 81 89 94 100 86 83
48 54 56 56 55 58 68 82 85 88 93 94 93 95 97 95 96 92 92 95 93 91 86 86 92 99 97 100 72 92 96 92 100 100 100 100 100 86
58 59 59 61 64 74 86 90 89 91 94 94 92 96 99 98 93 96 96 97 95 92 93 87 89 98 98 98 98 74 78 96 96 94 98 100 100 92
57 61 70 76 89 93 93 92 93 95 96 96 97 100 99 97 94 97 96 98 100 97 94 87 86 92 97 97 100 92 78 82 96 97 93 96 95 95
63 71 88 94 94 94 93 94 94 94 96 97 96 99 100 99 98 100 95 100 96 96 93 90 89 92 96 97 96 95 90 84 81 86 95 98 98 98
68 84 90 92 93 94 95 95 95 96 98 98 94 94 97 97 97 96 95 98 97 96 98 97 91 94 100 98 98 98 94 92 93 88 76 94 98 99

GFSNE_850_rhum_027.txt.gz
RH
83 74 55 70 50 54 66 62 50 40 32 25 26 27 27 26 25 23 20 19 14 12 14 13 13 14 16 42 90 97 97 97 96 96 98 95 99 99
82 66 58 53 65 80 79 62 61 38 29 32 33 33 30 26 24 24 25 23 19 21 20 20 20 25 70 97 98 100 100 98 99 99 100 99 100 100
76 58 63 80 88 84 78 82 80 47 32 35 34 31 25 24 23 24 23 25 24 20 21 21 25 42 90 98 99 98 99 100 100 100 100 100 100 100
63 68 86 90 95 94 90 85 93 54 44 73 40 25 26 27 31 27 32 32 36 27 23 25 39 43 46 57 82 97 100 100 98 96 98 98 95 96
76 91 98 100 99 85 53 50 80 96 93 42 35 32 33 32 35 43 49 48 38 26 23 42 45 46 46 46 61 82 69 70 86 95 98 100 100 100
98 100 99 92 90 96 98 99 97 90 41 33 35 49 52 54 72 72 69 76 51 25 39 50 47 48 47 50 52 50 49 49 51 52 96 100 100 100
99 100 98 99 100 99 99 86 42 31 35 45 68 73 79 90 100 99 92 84 68 43 48 48 47 46 44 49 49 50 52 52 52 60 100 100 100 100
99 100 100 100 100 93 44 22 29 32 49 92 92 80 95 100 93 93 95 100 100 80 66 72 61 49 50 54 53 53 52 54 54 56 86 98 100 100
100 99 100 84 30 23 22 23 23 31 50 83 95 98 97 99 97 93 95 99 100 85 76 70 59 54 58 55 54 54 52 54 56 58 60 76 100 100
99 88 38 23 21 20 18 18 26 49 67 71 87 92 97 97 98 100 98 92 74 69 72 96 61 69 73 58 53 52 56 58 60 60 63 92 100 100
28 23 21 19 16 16 27 44 61 81 88 86 80 78 80 76 68 70 70 86 89 85 75 95 73 88 76 58 56 59 60 63 64 65 67 68 82 100
18 18 21 20 23 40 97 100 99 82 66 50 47 44 46 54 70 78 85 90 95 95 85 98 87 88 100 72 71 68 61 61 61 63 65 68 72 100
17 22 32 43 61 100 100 87 63 90 66 49 40 46 65 69 74 80 85 91 94 92 81 100 87 84 100 94 65 67 69 67 67 65 70 75 80 85
28 34 39 49 73 71 59 43 39 37 38 42 59 68 72 73 74 78 82 88 92 86 82 94 95 95 99 94 87 72 72 69 70 66 72 71 72 77
30 38 57 52 41 36 37 38 41 46 56 70 74 74 77 78 79 80 81 82 81 78 80 85 90 90 97 98 99 83 80 66 67 71 72 73 75 78
33 35 33 35 38 42 42 43 48 62 75 78 81 82 83 83 82 86 82 84 80 71 73 75 83 93 92 90 98 80 74 90 75 76 84 81 83 84
36 40 40 39 38 39 45 57 74 80 83 85 87 87 86 85 83 84 86 85 86 79 71 73 81 85 83 92 84 77 83 88 80 85 98 93 83 86
38 39 39 40 45 54 68 76 81 82 84 86 88 90 89 87 85 82 88 92 89 81 78 76 80 84 79 80 85 81 86 99 92 98 100 100 100 95
39 40 42 50 62 78 81 82 81 86 89 91 92 93 93 91 88 87 92 94 85 84 84 86 92 100 98 99 79 92 95 85 88 88 86 93 100 84
42 44 52 68 84 84 85 85 86 88 91 93 93 94 93 94 90 92 96 99 96 90 98 91 91 100 99 99 100 75 83 95 96 96 91 91 89 85
42 51 63 81 85 87 90 91 92 93 95 96 97 95 95 96 91 94 95 99 100 97 97 90 86 90 100 100 97 96 84 96 97 96 95 99 93 90
46 53 65 79 85 88 89 91 90 92 95 98 96 92 93 94 92 92 92 100 91 93 95 92 85 95 100 100 97 99 88 77 82 94 96 98 98 98
45 49 60 74 82 85 87 91 93 93 97 99 94 90 92 90 91 93 94 94 98 95 95 96 97 100 99 100 100 99 96 87 83 79 72 84 90 94

GFSNE_850_rhum_030.txt.gz
RH
100 93 89 87 65 47 42 55 59 44 52 56 37 30 26 29 30 29 29 24 18 16 12 8 9 8 7 8 10 46 95 95 96 98 100 97 98 99
100 97 93 78 62 49 60 55 66 70 48 38 31 36 60 52 62 35 24 24 21 14 13 18 18 15 14 26 51 87 98 98 100 100 100 97 99 100
100 99 94 81 64 64 62 78 87 81 72 71 84 77 82 84 85 70 30 33 34 23 20 22 18 18 24 67 85 98 98 98 100 100 100 100 100 100
100 100 98 86 70 69 84 92 91 96 95 95 95 94 99 96 43 23 26 25 43 29 23 24 20 21 31 38 52 84 85 95 98 100 100 98 99 99
100 97 86 77 88 100 98 97 96 97 98 97 98 96 56 29 25 19 22 55 67 40 34 20 20 34 40 42 44 46 42 58 86 98 100 100 100 100
94 93 90 95 98 98 98 100 100 99 99 98 63 38 40 36 46 63 79 90 87 81 39 43 44 42 40 43 44 44 46 48 49 51 63 94 97 99
86 93 99 99 100 100 100 100 99 96 92 59 59 67 90 90 84 88 91 88 88 90 80 83 84 68 56 48 43 44 47 51 54 54 54 97 100 100
92 98 100 100 100 100 99 94 73 35 29 44 98 97 93 94 86 90 94 98 95 85 88 90 88 80 75 59 47 50 53 54 53 52 57 87 96 100
100 99 100 100 98 89 56 20 20 28 54 82 97 92 88 93 98 99 100 100 100 94 97 93 90 84 84 56 51 50 50 50 51 53 56 73 100 100
100 100 93 50 23 21 21 22 25 37 56 75 98 98 98 98 100 100 100 98 94 92 93 95 83 88 85 57 52 50 50 54 56 58 60 77 99 100
64 25 24 19 17 21 65 43 56 93 73 56 53 46 45 48 57 97 84 100 100 95 94 97 83 92 89 59 58 59 58 58 59 63 71 78 84 100
19 16 12 16 26 43 72 80 63 46 45 42 78 50 38 41 56 69 77 93 100 100 94 88 80 98 100 78 77 76 69 71 70 69 65 63 65 97
15 20 23 22 26 54 80 89 60 56 74 36 33 42 58 67 71 76 82 88 87 85 76 100 86 91 100 100 81 85 79 74 78 69 71 70 73 93
28 30 41 38 33 38 38 35 34 32 33 36 50 66 74 73 76 78 81 84 87 80 77 92 96 93 98 97 85 70 79 69 66 62 70 74 79 79
35 38 40 37 35 31 30 30 31 33 43 59 66 68 73 76 78 79 79 80 78 75 76 81 89 89 93 93 90 79 85 61 62 68 78 82 83 88
38 37 33 31 30 31 33 34 42 58 71 76 81 79 80 80 78 80 79 79 81 76 78 81 83 90 89 91 95 99 83 98 70 75 80 84 85 94
31 32 34 34 35 39 47 61 74 79 80 81 80 81 82 83 82 84 83 85 88 84 83 80 86 94 93 99 88 80 85 85 94 94 98 94 89 82
34 36 38 40 47 60 75 78 78 80 84 87 89 91 91 92 89 86 88 92 94 91 89 79 82 92 84 91 94 86 96 94 85 100 100 100 100 95
40 42 43 50 63 77 78 79 81 85 89 90 91 92 94 93 92 88 89 92 94 96 90 84 89 100 100 100 96 100 96 82 90 100 95 100 100 100
40 42 47 57 73 77 78 80 82 86 91 94 93 93 95 95 93 92 92 94 94 93 92 90 87 97 100 100 100 97 87 94 93 93 91 100 100 98
41 44 51 60 75 77 78 80 82 85 90 93 95 96 97 96 93 94 94 92 97 98 96 86 80 88 90 88 100 98 93 97 97 96 95 100 100 100
40 43 50 58 71 76 78 80 80 84 89 93 94 96 97 97 96 95 93 93 94 96 90 84 82 86 100 100 96 97 91 87 87 94 95 96 98 97
39 41 45 52 61 68 74 76 78 85 90 93 96 96 97 97 97 96 93 95 97 97 92 91 90 100 97 100 100 96 95 94 88 89 88 91 92 92